TimeEDT,TemperatureF,Dew PointF,Humidity,Sea Level PressureIn,VisibilityMPH,Wind Direction,Wind SpeedMPH,Gust SpeedMPH,PrecipitationIn,Events,Conditions,WindDirDegrees,DateUTC
12:17 AM,64.4,57.2,77,30.06,10.0,NE,9.2,-,N/A,,Overcast,50,2013-07-02 04:17:00
12:37 AM,64.4,57.2,77,30.06,10.0,NE,8.1,-,N/A,,Mostly Cloudy,40,2013-07-02 04:37:00
12:57 AM,62.6,57.2,82,30.05,10.0,NE,8.1,-,N/A,,Mostly Cloudy,50,2013-07-02 04:57:00
1:17 AM,62.6,57.2,82,30.05,10.0,NE,5.8,-,N/A,,Mostly Cloudy,50,2013-07-02 05:17:00
1:37 AM,62.6,57.2,82,30.05,10.0,NNE,5.8,-,N/A,,Mostly Cloudy,30,2013-07-02 05:37:00
1:57 AM,62.6,57.2,82,30.05,10.0,NE,3.5,-,N/A,,Overcast,50,2013-07-02 05:57:00
2:17 AM,64.4,57.2,77,30.06,10.0,ENE,8.1,-,N/A,,Overcast,70,2013-07-02 06:17:00
2:37 AM,64.4,55.4,73,30.08,10.0,East,9.2,18.4,N/A,,Overcast,90,2013-07-02 06:37:00
2:57 AM,64.4,55.4,73,30.06,10.0,ENE,12.7,16.1,N/A,,Overcast,60,2013-07-02 06:57:00
3:17 AM,64.4,55.4,73,30.06,10.0,East,10.4,-,N/A,,Overcast,80,2013-07-02 07:17:00
3:37 AM,64.4,57.2,77,30.05,10.0,NNE,4.6,-,N/A,,Overcast,20,2013-07-02 07:37:00
3:57 AM,62.6,55.4,77,30.03,10.0,NE,10.4,-,N/A,,Overcast,40,2013-07-02 07:57:00
4:17 AM,62.6,55.4,77,30.05,10.0,NE,6.9,-,N/A,,Overcast,50,2013-07-02 08:17:00
4:37 AM,62.6,55.4,77,30.05,10.0,NE,9.2,-,N/A,,Overcast,50,2013-07-02 08:37:00
4:57 AM,62.6,55.4,77,30.05,10.0,NE,8.1,-,N/A,,Overcast,50,2013-07-02 08:57:00
5:17 AM,62.6,55.4,77,30.05,10.0,NNE,5.8,-,N/A,,Overcast,30,2013-07-02 09:17:00
5:37 AM,62.6,55.4,77,30.05,10.0,NE,5.8,-,N/A,,Overcast,50,2013-07-02 09:37:00
5:57 AM,62.6,55.4,77,30.05,10.0,NE,8.1,-,N/A,,Overcast,50,2013-07-02 09:57:00
6:17 AM,62.6,57.2,82,30.06,10.0,NNE,5.8,-,N/A,,Overcast,30,2013-07-02 10:17:00
6:37 AM,62.6,57.2,82,30.06,10.0,NNE,3.5,-,N/A,,Overcast,20,2013-07-02 10:37:00
6:57 AM,62.6,57.2,82,30.06,10.0,Calm,Calm,-,N/A,,Overcast,0,2013-07-02 10:57:00
7:17 AM,62.6,57.2,82,30.07,10.0,Calm,Calm,-,N/A,,Overcast,0,2013-07-02 11:17:00
7:37 AM,62.6,57.2,82,30.08,10.0,NE,3.5,-,N/A,,Overcast,50,2013-07-02 11:37:00
7:57 AM,62.6,57.2,82,30.08,10.0,Calm,Calm,-,N/A,,Overcast,0,2013-07-02 11:57:00
8:17 AM,64.4,57.2,77,30.08,10.0,NNE,3.5,-,N/A,,Overcast,30,2013-07-02 12:17:00
8:37 AM,64.4,57.2,77,30.08,10.0,NE,6.9,-,N/A,,Overcast,40,2013-07-02 12:37:00
8:57 AM,64.4,57.2,77,30.09,10.0,NE,6.9,-,N/A,,Mostly Cloudy,40,2013-07-02 12:57:00
9:17 AM,66.2,57.2,73,30.09,10.0,ENE,9.2,-,N/A,,Overcast,60,2013-07-02 13:17:00
9:37 AM,64.4,57.2,77,30.09,10.0,NE,9.2,-,N/A,,Mostly Cloudy,40,2013-07-02 13:37:00
9:57 AM,66.2,59.0,78,30.08,10.0,NE,9.2,-,N/A,,Overcast,40,2013-07-02 13:57:00
10:17 AM,66.2,57.2,73,30.08,10.0,North,6.9,-,N/A,,Scattered Clouds,10,2013-07-02 14:17:00
10:37 AM,66.2,57.2,73,30.08,10.0,NNE,6.9,-,N/A,,Clear,30,2013-07-02 14:37:00
10:57 AM,68.0,59.0,73,30.08,10.0,NNE,6.9,-,N/A,,Clear,20,2013-07-02 14:57:00
11:17 AM,68.0,59.0,73,30.09,10.0,ENE,6.9,-,N/A,,Clear,60,2013-07-02 15:17:00
11:37 AM,68.0,59.0,73,30.09,10.0,NE,4.6,-,N/A,,Clear,50,2013-07-02 15:37:00
11:57 AM,68.0,59.0,73,30.08,10.0,NE,8.1,-,N/A,,Clear,40,2013-07-02 15:57:00
12:17 PM,68.0,59.0,73,30.08,10.0,Calm,Calm,-,N/A,,Clear,0,2013-07-02 16:17:00
12:37 PM,68.0,59.0,73,30.09,10.0,Calm,Calm,-,N/A,,Clear,0,2013-07-02 16:37:00
12:57 PM,68.0,59.0,73,30.09,10.0,NE,4.6,-,N/A,,Mostly Cloudy,50,2013-07-02 16:57:00
1:17 PM,69.8,59.0,68,30.09,10.0,Calm,Calm,-,N/A,,Overcast,0,2013-07-02 17:17:00
1:37 PM,69.8,60.8,73,30.08,10.0,NE,8.1,-,N/A,,Overcast,40,2013-07-02 17:37:00
1:57 PM,69.8,59.0,68,30.08,10.0,NE,5.8,-,N/A,,Overcast,50,2013-07-02 17:57:00
2:17 PM,69.8,60.8,73,30.08,10.0,NE,6.9,-,N/A,,Overcast,50,2013-07-02 18:17:00
2:37 PM,69.8,60.8,73,30.08,10.0,NE,8.1,-,N/A,,Overcast,40,2013-07-02 18:37:00
2:57 PM,69.8,60.8,73,30.08,10.0,NNE,8.1,-,N/A,,Overcast,30,2013-07-02 18:57:00
3:17 PM,69.8,60.8,73,30.08,10.0,NNE,8.1,-,N/A,,Overcast,20,2013-07-02 19:17:00
3:37 PM,69.8,60.8,73,30.07,10.0,NE,10.4,-,N/A,,Overcast,50,2013-07-02 19:37:00
3:57 PM,68.0,59.0,73,30.08,10.0,ENE,11.5,16.1,N/A,,Overcast,60,2013-07-02 19:57:00
4:17 PM,68.0,59.0,73,30.08,10.0,NE,10.4,-,N/A,,Overcast,50,2013-07-02 20:17:00
4:37 PM,66.2,59.0,78,30.08,10.0,NNE,8.1,-,N/A,,Overcast,30,2013-07-02 20:37:00
4:57 PM,68.0,59.0,73,30.07,10.0,NNE,4.6,-,N/A,,Overcast,30,2013-07-02 20:57:00
5:17 PM,68.0,59.0,73,30.08,10.0,NNE,4.6,-,N/A,,Overcast,30,2013-07-02 21:17:00
5:37 PM,66.2,59.0,78,30.08,10.0,NE,6.9,-,N/A,,Overcast,40,2013-07-02 21:37:00
5:57 PM,66.2,59.0,78,30.07,10.0,Calm,Calm,-,N/A,,Overcast,0,2013-07-02 21:57:00
6:17 PM,66.2,57.2,73,30.08,10.0,NNE,3.5,-,N/A,,Overcast,30,2013-07-02 22:17:00
6:37 PM,66.2,57.2,73,30.08,10.0,Calm,Calm,-,N/A,,Overcast,0,2013-07-02 22:37:00
6:57 PM,66.2,59.0,78,30.08,10.0,Calm,Calm,-,N/A,,Overcast,0,2013-07-02 22:57:00
7:17 PM,66.2,57.2,73,30.08,10.0,Calm,Calm,-,N/A,,Overcast,0,2013-07-02 23:17:00
7:36 PM,66.2,57.2,73,30.08,10.0,Calm,Calm,-,N/A,,Overcast,0,2013-07-02 23:36:00
7:55 PM,66.2,57.2,73,30.08,10.0,Calm,Calm,-,N/A,,Overcast,0,2013-07-02 23:55:00
8:17 PM,64.4,59.0,83,30.09,10.0,Calm,Calm,-,N/A,,Overcast,0,2013-07-03 00:17:00
8:37 PM,64.4,59.0,83,30.08,10.0,Calm,Calm,-,N/A,,Overcast,0,2013-07-03 00:37:00
8:57 PM,64.4,59.0,83,30.08,10.0,Calm,Calm,-,N/A,,Overcast,0,2013-07-03 00:57:00
9:17 PM,64.4,59.0,83,30.08,10.0,Calm,Calm,-,N/A,,Overcast,0,2013-07-03 01:17:00
9:29 PM,64.4,59.0,83,30.09,10.0,Calm,Calm,-,N/A,,Overcast,0,2013-07-03 01:29:00
9:56 PM,62.6,59.0,88,30.08,10.0,Calm,Calm,-,N/A,,Overcast,0,2013-07-03 01:56:00
10:17 PM,62.6,59.0,88,30.09,10.0,NE,3.5,-,N/A,,Scattered Clouds,40,2013-07-03 02:17:00
10:36 PM,62.6,59.0,88,30.09,10.0,Calm,Calm,-,N/A,,Clear,0,2013-07-03 02:36:00
10:53 PM,62.6,59.0,88,30.09,10.0,Calm,Calm,-,N/A,,Clear,0,2013-07-03 02:53:00
11:09 PM,62.6,59.0,88,30.10,10.0,Calm,Calm,-,N/A,,Clear,0,2013-07-03 03:09:00
11:37 PM,60.8,59.0,94,30.10,10.0,Calm,Calm,-,N/A,,Clear,0,2013-07-03 03:37:00
11:57 PM,59.0,59.0,100,30.10,10.0,Calm,Calm,-,N/A,,Clear,0,2013-07-03 03:57:00